SPACEBEENZ-10 (48882 NORAD) Tracking and Keplerian Element Data

This shows tracking and keplerian element data for the satellite.

Feedback or suggestion? Click here.




ElementValue
Catalog48882
NameSPACEBEENZ-10
Epoch Orbit1286
Epoch Day261.93005684
Epoch Year2021
RAAN29.4562
Inclination97.5229
Eccentricity0.0007953
Argument of Perigee330.5779
Mean Anonmoly29.5003
Mean Motion15.12233984
Decay Rate2.128E-05
L11 48882U 21059D 21261.93005684 .00002128 00000-0 12686-3 0 9993
L22 48882 97.5229 29.4562 0007953 330.5779 29.5003 15.12233984 12866

Live tracking and technical data element details for SPACEBEENZ-10 (NORAD 48882). SPACEBEENZ-10 can be tracked NOW for your location showing map with azimuth and elevation plus other details from your city location.

Track the satellite on the map from your city or location and see movement details for azimuth, elevation, latitude, longitude, range, height, and movement on the map or in text.







IsCatalogInMostPopularTable: catalog: 48882, numindb: 14
Update: records affected: 1



GetName: 48882 SPACEBEENZ-10

Hit Count: updated at: Fri, 24 Sep 2021 17:20:50 GMT